Location: Bern
(46.9167°N, 7.4667°E)
Time: 05:27:21
(UTC+02:00)

ISS - Visible Passes

Search period start: 21 October 2021 00:00
Search period end: 31 October 2021 00:00
Orbit: 417 x 423 km, 51.6° (Epoch: 20 October)

Date Brightness Start Highest point End Pass type
(mag) Time Alt. Az. Time Alt. Az. Time Alt. Az.
22 Oct -1.7 07:01:04 10° SSW 07:03:59 27° SE 07:06:54 10° E visible
23 Oct -1.2 06:14:26 10° S 06:16:49 18° SE 06:19:11 10° E visible
24 Oct -0.8 05:29:19 11° SE 05:29:38 11° SE 05:30:49 10° ESE visible
24 Oct -3.4 07:02:33 10° SW 07:05:53 65° SSE 07:09:14 10° ENE visible
25 Oct -2.8 06:17:18 29° SSW 06:18:29 42° SE 06:21:42 10° ENE visible
26 Oct -1.5 05:32:07 23° ESE 05:32:07 23° ESE 05:34:01 10° E visible
26 Oct -3.7 07:05:05 15° W 07:07:44 62° NNW 07:11:05 10° ENE visible
27 Oct -3.9 06:19:43 66° WSW 06:20:08 86° NNW 06:23:31 10° ENE visible
28 Oct -1.6 05:34:13 26° ENE 05:34:13 26° ENE 05:35:52 10° ENE visible
28 Oct -3.0 07:07:11 17° WNW 07:09:28 40° N 07:12:41 10° ENE visible
29 Oct -3.4 06:21:33 48° NNW 06:21:41 48° NNW 06:24:58 10° ENE visible
30 Oct -1.4 05:35:49 23° NE 05:35:49 23° NE 05:37:14 10° ENE visible
30 Oct -2.7 07:08:46 16° WNW 07:11:03 35° N 07:14:10 10° ENE visible
